TimeEST,TemperatureF,Dew PointF,Humidity,Sea Level PressureIn,VisibilityMPH,Wind Direction,Wind SpeedMPH,Gust SpeedMPH,PrecipitationIn,Events,Conditions,WindDirDegrees,DateUTC
12:58 AM,27.9,23.0,82,30.36,10.0,Calm,Calm,-,N/A,,Clear,0,2013-02-18 05:58:00
1:59 AM,27.7,22.1,80,30.35,10.0,Calm,Calm,-,N/A,,Clear,0,2013-02-18 06:59:00
2:58 AM,26.6,22.6,85,30.36,10.0,Calm,Calm,-,N/A,,Clear,0,2013-02-18 07:58:00
3:58 AM,26.6,22.5,84,30.35,10.0,Calm,Calm,-,N/A,,Clear,0,2013-02-18 08:58:00
4:58 AM,26.1,21.4,82,30.37,10.0,Calm,Calm,-,N/A,,Clear,0,2013-02-18 09:58:00
5:58 AM,25.0,21.7,87,30.39,10.0,North,1.2,-,N/A,,Clear,350,2013-02-18 10:58:00
6:58 AM,23.9,21.4,90,30.40,10.0,Calm,Calm,-,N/A,,Clear,0,2013-02-18 11:58:00
7:58 AM,26.8,23.4,87,30.41,10.0,Calm,Calm,-,N/A,,Clear,0,2013-02-18 12:58:00
8:58 AM,35.8,27.5,72,30.42,10.0,Calm,Calm,-,N/A,,Clear,10,2013-02-18 13:58:00
9:58 AM,45.5,24.3,43,30.43,10.0,Calm,Calm,-,N/A,,Clear,10,2013-02-18 14:58:00
10:58 AM,51.6,15.4,24,30.44,10.0,Calm,Calm,-,N/A,,Clear,10,2013-02-18 15:58:00
11:58 AM,53.2,16.2,23,30.43,10.0,Variable,5.8,-,N/A,,Clear,0,2013-02-18 16:58:00
12:58 PM,55.9,18.5,23,30.39,10.0,Variable,4.6,-,N/A,,Clear,0,2013-02-18 17:58:00
1:58 PM,56.5,19.0,23,30.36,10.0,East,6.9,-,N/A,,Clear,100,2013-02-18 18:58:00
2:58 PM,57.4,20.1,24,30.35,10.0,ESE,12.7,-,N/A,,Clear,110,2013-02-18 19:58:00
3:58 PM,55.8,21.2,26,30.35,10.0,East,12.7,17.3,N/A,,Clear,100,2013-02-18 20:58:00
4:58 PM,54.9,23.5,30,30.34,10.0,ESE,9.2,-,N/A,,Clear,110,2013-02-18 21:58:00
5:58 PM,52.0,30.2,43,30.34,10.0,ESE,8.1,-,N/A,,Clear,120,2013-02-18 22:58:00
6:58 PM,47.5,31.3,53,30.33,10.0,SE,5.8,-,N/A,,Clear,130,2013-02-18 23:58:00
7:58 PM,44.6,31.5,60,30.32,10.0,ESE,4.6,-,N/A,,Clear,110,2013-02-19 00:58:00
8:58 PM,42.6,32.2,67,30.30,10.0,ESE,3.5,-,N/A,,Clear,120,2013-02-19 01:58:00
9:58 PM,39.2,34.2,82,30.29,10.0,Calm,Calm,-,N/A,,Clear,0,2013-02-19 02:58:00
10:58 PM,37.2,33.8,87,30.27,10.0,Calm,Calm,-,N/A,,Clear,0,2013-02-19 03:58:00
11:58 PM,36.9,33.6,88,30.26,10.0,Calm,Calm,-,N/A,,Clear,0,2013-02-19 04:58:00